Location: Skalnate Pleso
(49.1889°N, 20.2450°E)
Time: 06:19:32
(UTC+01:00)

Cosmos 1898 Rocket - Pass Details

Date: 19 November 2019
Orbit: 753 x 785 km, 74.0° (Epoch: 05 December)

Event Time Altitude Azimuth Distance (km) Brightness Sun altitude
Exits shadow 03:31:39 44° 83° (E) 1,056 4.5 -32.8°
Drops below altitude 10° 03:36:03 10° 33° (NNE) 2,335 6.4 -32.1°
Sets 03:38:32 0° 28° (NNE) 3,271 7.2 -31.7°
